This is the latest recevied weather packets stored in our database for station/object WI0K. If no packets are shown the sender has not sent any weather packets the latest 10 day(s).
| Time | Temp. | Humidity | Pressure | Rain* | Wind** | Luminosity | Snow |
|---|---|---|---|---|---|---|---|
| 1788387545 | 30.56° C | 27% | 1015.8 hPa | 0 mm | - | 532 W/m² | - |
| 1788387244 | 30.56° C | 27% | 1015.9 hPa | 0 mm | - | 558 W/m² | - |
| 1788386942 | 30° C | 27% | 1015.9 hPa | 0 mm | - | 568 W/m² | - |
| 1788386641 | 30° C | 27% | 1016.1 hPa | 0 mm | - | 584 W/m² | - |
| 1788386340 | 30° C | 26% | 1016.2 hPa | 0 mm | - | 598 W/m² | - |
| 1788386039 | 30° C | 27% | 1016.2 hPa | 0 mm | - | 615 W/m² | - |
| 1788385738 | 30° C | 28% | 1016.2 hPa | 0 mm | - | 650 W/m² | - |
| 1788385436 | 30° C | 27% | 1016.3 hPa | 0 mm | - | 662 W/m² | - |
| 1788385136 | 30° C | 28% | 1016.3 hPa | 0 mm | - | 679 W/m² | - |
| 1788384834 | 30° C | 28% | 1016.4 hPa | 0 mm | - | 685 W/m² | - |
| 1788384533 | 30° C | 28% | 1016.4 hPa | 0 mm | - | 693 W/m² | - |
| 1788384233 | 30° C | 27% | 1016.4 hPa | 0 mm | - | 708 W/m² | - |
| 1788383932 | 30° C | 26% | 1016.4 hPa | 0 mm | - | 721 W/m² | - |
| 1788383631 | 30° C | 26% | 1016.6 hPa | 0 mm | - | 736 W/m² | - |
| 1788383329 | 30° C | 27% | 1016.6 hPa | 0 mm | - | 744 W/m² | - |
| 1788383027 | 30° C | 26% | 1016.8 hPa | 0 mm | - | 757 W/m² | - |
| 1788382727 | 30° C | 26% | 1016.9 hPa | 0 mm | - | 771 W/m² | - |
| 1788382424 | 30° C | 27% | 1016.8 hPa | 0 mm | - | 778 W/m² | - |
| 1788382122 | 30° C | 26% | 1016.9 hPa | 0 mm | - | 796 W/m² | - |
| 1788381821 | 30° C | 27% | 1017 hPa | 0 mm | - | 804 W/m² | - |
| 1788381520 | 30° C | 27% | 1017.2 hPa | 0 mm | - | 817 W/m² | - |
| 1788381219 | 30° C | 27% | 1017.2 hPa | 0 mm | - | 824 W/m² | - |
| 1788380918 | 30° C | 28% | 1017.2 hPa | 0 mm | - | 836 W/m² | - |
| 1788380618 | 30° C | 28% | 1017.5 hPa | 0 mm | - | 843 W/m² | - |
| 1788380316 | 30° C | 28% | 1017.5 hPa | 0 mm | - | 856 W/m² | - |
* Rain latest hour (hover to see other rain measurements)
** Current wind speed in m/s (hover to see current wind gust speed)